Location: Palomar Mountain Lodge
(33.3110°N, 116.8495°W)
Time: 14:18:17
(UTC-07:00)

DELTA 2 R/B (1) - Pass Details

Date: 14 June 2018
Orbit: 791 x 803 km, 39.6° (Epoch: 19 June)

Event Time Altitude Azimuth Distance (km) Brightness Sun altitude
Rises 20:29:57 0° 291° (WNW) 3,276 8.8 -6.5°
Reaches altitude 10° 20:32:28 10° 288° (WNW) 2,345 7.5 -7.0°
Maximum altitude 20:37:51 56° 211° (SSW) 925 3.9 -7.9°
Enters shadow 20:43:09 11° 133° (SE) 2,305 5.3 -8.8°
